Time,TemperatureF,DewpointF,PressureIn,WindDirection,WindDirectionDegrees,WindSpeedMPH,WindSpeedGustMPH,Humidity,HourlyPrecipIn,Conditions,Clouds,dailyrainin,SoftwareType,DateUTC
2013-09-30 00:00:00,49.9,48.8,30.06,NW,305,0.0,0.0,96,0.00,,,0.00,Wunderground v.1.13,2013-09-30 04:00:00,
2013-09-30 00:30:00,48.9,47.5,30.06,NW,305,0.0,0.0,95,0.00,,,0.00,Wunderground v.1.13,2013-09-30 04:30:00,
2013-09-30 01:00:00,47.2,45.8,30.07,NW,305,0.0,0.0,95,0.00,,,0.00,Wunderground v.1.13,2013-09-30 05:00:00,
2013-09-30 01:30:00,45.7,44.6,30.07,NW,305,0.0,0.0,96,0.00,,,0.00,Wunderground v.1.13,2013-09-30 05:30:00,
2013-09-30 02:00:00,44.6,43.8,30.07,NW,305,0.0,0.0,97,0.00,,,0.00,Wunderground v.1.13,2013-09-30 06:00:00,
2013-09-30 02:30:00,43.6,42.8,30.06,NW,305,0.0,0.0,97,0.00,,,0.00,Wunderground v.1.13,2013-09-30 06:30:00,
2013-09-30 03:00:00,42.8,42.3,30.06,NW,305,0.0,0.0,98,0.00,,,0.00,Wunderground v.1.13,2013-09-30 07:00:00,
2013-09-30 03:30:00,42.2,41.4,30.06,NW,305,0.0,0.0,97,0.00,,,0.00,Wunderground v.1.13,2013-09-30 07:30:00,
2013-09-30 04:00:00,41.5,41.0,30.06,NW,305,0.0,0.0,98,0.00,,,0.00,Wunderground v.1.13,2013-09-30 08:00:00,
2013-09-30 04:30:00,41.1,40.6,30.06,NW,305,0.0,0.0,98,0.00,,,0.00,Wunderground v.1.13,2013-09-30 08:30:00,
2013-09-30 05:00:00,40.6,40.1,30.06,NW,305,0.0,0.0,98,0.00,,,0.00,Wunderground v.1.13,2013-09-30 09:00:00,
2013-09-30 05:30:00,41.1,40.8,30.06,NW,305,0.0,0.0,99,0.00,,,0.00,Wunderground v.1.13,2013-09-30 09:30:00,
2013-09-30 06:00:00,42.4,42.4,30.06,NW,305,0.0,0.0,100,0.00,,,0.00,Wunderground v.1.13,2013-09-30 10:00:00,
2013-09-30 06:30:00,41.7,41.4,30.06,NW,305,0.0,0.0,99,0.00,,,0.00,Wunderground v.1.13,2013-09-30 10:30:00,
2013-09-30 07:00:00,40.2,39.7,30.07,NW,305,0.0,0.0,98,0.00,,,0.00,Wunderground v.1.13,2013-09-30 11:00:00,
2013-09-30 07:30:00,40.3,40.0,30.09,NW,305,0.0,0.0,99,0.00,,,0.00,Wunderground v.1.13,2013-09-30 11:30:00,
2013-09-30 08:00:00,41.9,41.9,30.09,NW,305,0.0,0.0,100,0.00,,,0.00,Wunderground v.1.13,2013-09-30 12:00:00,
2013-09-30 08:30:00,43.4,43.4,30.08,NW,305,0.0,0.0,100,0.00,,,0.00,Wunderground v.1.13,2013-09-30 12:30:00,
2013-09-30 09:00:00,44.8,44.8,30.08,NW,304,0.0,1.0,100,0.00,,,0.00,Wunderground v.1.13,2013-09-30 13:00:00,
2013-09-30 09:30:00,47.0,47.0,30.07,SE,144,0.0,0.0,100,0.00,,,0.00,Wunderground v.1.13,2013-09-30 13:30:00,
2013-09-30 10:00:00,51.0,49.9,30.07,SSE,148,0.0,0.0,96,0.00,,,0.00,Wunderground v.1.13,2013-09-30 14:00:00,
2013-09-30 10:30:00,55.2,52.0,30.06,South,169,1.0,1.0,89,0.00,,,0.00,Wunderground v.1.13,2013-09-30 14:30:00,
2013-09-30 11:00:00,59.3,53.5,30.06,South,171,1.0,1.0,81,0.00,,,0.00,Wunderground v.1.13,2013-09-30 15:00:00,
2013-09-30 11:30:00,63.2,55.1,30.04,SSW,200,0.0,0.0,75,0.00,,,0.00,Wunderground v.1.13,2013-09-30 15:30:00,
2013-09-30 12:00:00,66.5,56.0,30.03,South,180,2.0,2.0,69,0.00,,,0.00,Wunderground v.1.13,2013-09-30 16:00:00,
2013-09-30 12:30:00,69.1,55.1,30.02,South,170,0.0,4.0,61,0.00,,,0.00,Wunderground v.1.13,2013-09-30 16:30:00,
2013-09-30 13:00:00,69.6,54.2,30.02,South,169,1.0,1.0,58,0.00,,,0.00,Wunderground v.1.13,2013-09-30 17:00:00,
2013-09-30 13:30:00,71.4,50.1,30.01,North,355,1.0,1.0,47,0.00,,,0.00,Wunderground v.1.13,2013-09-30 17:30:00,
2013-09-30 14:00:00,72.1,48.4,30.00,ENE,78,1.0,1.0,43,0.00,,,0.00,Wunderground v.1.13,2013-09-30 18:00:00,
2013-09-30 14:30:00,73.2,49.4,29.99,East,90,0.0,0.0,43,0.00,,,0.00,Wunderground v.1.13,2013-09-30 18:30:00,
2013-09-30 15:00:00,73.5,49.0,29.98,NNE,27,0.0,0.0,42,0.00,,,0.00,Wunderground v.1.13,2013-09-30 19:00:00,
2013-09-30 15:30:00,74.2,47.6,29.98,North,350,0.0,0.0,39,0.00,,,0.00,Wunderground v.1.13,2013-09-30 19:30:00,
2013-09-30 16:00:00,74.0,47.5,29.97,NNE,22,0.0,0.0,39,0.00,,,0.00,Wunderground v.1.13,2013-09-30 20:00:00,
2013-09-30 17:00:00,69.6,50.1,29.97,ENE,67,0.0,0.0,50,0.00,,,0.00,Wunderground v.1.13,2013-09-30 21:00:00,
2013-09-30 17:30:00,63.3,52.2,29.97,ENE,67,0.0,0.0,67,0.00,,,0.00,Wunderground v.1.13,2013-09-30 21:30:00,
2013-09-30 18:00:00,58.2,52.1,29.98,ENE,67,0.0,0.0,80,0.00,,,0.00,Wunderground v.1.13,2013-09-30 22:00:00,
2013-09-30 18:30:00,54.4,50.0,29.97,ENE,67,0.0,0.0,85,0.00,,,0.00,Wunderground v.1.13,2013-09-30 22:30:00,
2013-09-30 19:00:00,51.9,48.8,29.98,ENE,67,0.0,0.0,89,0.00,,,0.00,Wunderground v.1.13,2013-09-30 23:00:00,
2013-09-30 19:30:00,49.9,47.7,29.97,ENE,67,0.0,0.0,92,0.00,,,0.00,Wunderground v.1.13,2013-09-30 23:30:00,
2013-09-30 20:00:00,48.4,46.8,29.98,ENE,67,0.0,0.0,94,0.00,,,0.00,Wunderground v.1.13,2013-10-01 00:00:00,
2013-09-30 20:30:00,47.2,45.6,29.98,ENE,67,0.0,0.0,94,0.00,,,0.00,Wunderground v.1.13,2013-10-01 00:30:00,
2013-09-30 21:00:00,46.6,45.5,29.98,ENE,67,0.0,0.0,96,0.00,,,0.00,Wunderground v.1.13,2013-10-01 01:00:00,
2013-09-30 21:30:00,46.0,44.9,29.99,ENE,67,0.0,0.0,96,0.00,,,0.00,Wunderground v.1.13,2013-10-01 01:30:00,
2013-09-30 22:00:00,45.3,44.2,29.98,ENE,67,0.0,0.0,96,0.00,,,0.00,Wunderground v.1.13,2013-10-01 02:00:00,
2013-09-30 22:30:00,44.5,43.7,29.98,ENE,67,0.0,0.0,97,0.00,,,0.00,Wunderground v.1.13,2013-10-01 02:30:00,
2013-09-30 23:00:00,44.3,43.8,29.98,ENE,67,0.0,0.0,98,0.00,,,0.00,Wunderground v.1.13,2013-10-01 03:00:00,
2013-09-30 23:30:00,44.4,43.9,29.98,ENE,67,0.0,0.0,98,0.00,,,0.00,Wunderground v.1.13,2013-10-01 03:30:00,